QPF
0.00 0.00 0.00 0.00 0.00 0.00 0.00 0.00 0.00 0.00 0.00 0.00 0.00 0.01 0.01 0.01 0.03 0.03 0.05 0.09 0.17 0.21 0.27 0.36 0.40 0.44 0.45 0.39 0.29 0.21 0.21 0.14 0.09 0.06 0.03 0.02 0.01 0.01 0.01 0.02 0.01 0.01 0.01 0.01
0.00 0.00 0.00 0.00 0.00 0.00 0.00 0.00 0.00 0.00 0.00 0.00 0.00 0.01 0.01 0.01 0.02 0.02 0.04 0.09 0.15 0.15 0.18 0.25 0.34 0.32 0.37 0.39 0.27 0.18 0.14 0.10 0.07 0.04 0.02 0.01 0.00 0.00 0.01 0.01 0.01 0.01 0.02 0.01
0.00 0.00 0.00 0.00 0.00 0.00 0.01 0.00 0.00 0.00 0.01 0.00 0.00 0.01 0.01 0.02 0.02 0.03 0.04 0.08 0.12 0.15 0.17 0.21 0.32 0.27 0.21 0.27 0.29 0.20 0.12 0.07 0.04 0.02 0.01 0.00 0.00 0.00 0.00 0.00 0.00 0.00 0.01 0.00
0.00 0.00 0.00 0.00 0.00 0.00 0.01 0.00 0.00 0.01 0.00 0.00 0.00 0.00 0.01 0.01 0.02 0.02 0.04 0.06 0.06 0.09 0.11 0.14 0.20 0.17 0.12 0.13 0.16 0.15 0.09 0.04 0.01 0.01 0.00 0.00 0.00 0.00 0.00 0.00 0.00 0.00 0.00 0.00
0.00 0.00 0.00 0.00 0.00 0.00 0.00 0.00 0.01 0.01 0.01 0.00 0.00 0.00 0.00 0.01 0.01 0.01 0.02 0.03 0.04 0.04 0.06 0.13 0.14 0.12 0.09 0.07 0.08 0.07 0.05 0.02 0.00 0.00 0.00 0.00 0.00 0.00 0.00 0.00 0.00 0.00 0.00 0.01
0.00 0.00 0.00 0.00 0.00 0.01 0.01 0.01 0.01 0.01 0.00 0.00 0.00 0.00 0.00 0.00 0.01 0.01 0.01 0.01 0.02 0.03 0.05 0.10 0.11 0.10 0.07 0.05 0.04 0.03 0.02 0.00 0.00 0.00 0.00 0.00 0.00 0.00 0.00 0.00 0.00 0.00 0.00 0.00
0.00 0.00 0.00 0.00 0.01 0.01 0.01 0.01 0.00 0.00 0.00 0.00 0.00 0.00 0.00 0.00 0.00 0.00 0.00 0.00 0.01 0.01 0.02 0.03 0.04 0.03 0.02 0.02 0.01 0.01 0.01 0.00 0.00 0.00 0.00 0.00 0.00 0.00 0.00 0.00 0.00 0.00 0.00 0.00
0.00 0.00 0.00 0.00 0.01 0.00 0.01 0.00 0.00 0.00 0.00 0.00 0.00 0.00 0.00 0.00 0.00 0.00 0.00 0.00 0.00 0.01 0.01 0.01 0.01 0.01 0.01 0.01 0.01 0.01 0.01 0.00 0.00 0.00 0.00 0.00 0.00 0.00 0.00 0.00 0.00 0.00 0.00 0.00
0.00 0.00 0.00 0.01 0.01 0.01 0.01 0.00 0.00 0.00 0.00 0.00 0.00 0.00 0.00 0.00 0.00 0.00 0.00 0.00 0.00 0.00 0.01 0.02 0.01 0.01 0.00 0.00 0.00 0.01 0.00 0.00 0.00 0.00 0.00 0.00 0.00 0.00 0.00 0.00 0.00 0.00 0.00 0.00
0.01 0.00 0.01 0.01 0.00 0.01 0.00 0.00 0.00 0.00 0.00 0.00 0.00 0.00 0.00 0.00 0.00 0.00 0.00 0.00 0.00 0.00 0.01 0.01 0.00 0.00 0.00 0.00 0.00 0.00 0.00 0.00 0.00 0.00 0.00 0.00 0.00 0.00 0.00 0.00 0.00 0.00 0.00 0.00
0.01 0.01 0.01 0.01 0.01 0.01 0.01 0.00 0.00 0.01 0.00 0.00 0.00 0.00 0.00 0.00 0.00 0.00 0.00 0.00 0.00 0.00 0.00 0.00 0.00 0.00 0.00 0.00 0.00 0.00 0.00 0.00 0.00 0.00 0.00 0.00 0.00 0.00 0.00 0.00 0.00 0.00 0.00 0.00
0.01 0.01 0.01 0.01 0.01 0.01 0.01 0.01 0.01 0.01 0.01 0.00 0.00 0.00 0.00 0.00 0.00 0.00 0.00 0.00 0.00 0.00 0.00 0.00 0.00 0.00 0.00 0.00 0.00 0.00 0.00 0.00 0.00 0.00 0.00 0.00 0.00 0.00 0.00 0.00 0.00 0.00 0.00 0.00
0.01 0.01 0.01 0.01 0.01 0.00 0.00 0.00 0.00 0.01 0.01 0.01 0.00 0.00 0.00 0.00 0.00 0.00 0.00 0.00 0.00 0.00 0.00 0.00 0.00 0.00 0.00 0.00 0.00 0.00 0.00 0.00 0.00 0.00 0.00 0.00 0.00 0.00 0.00 0.00 0.00 0.00 0.00 0.00
0.01 0.01 0.01 0.00 0.00 0.00 0.01 0.01 0.01 0.01 0.01 0.00 0.00 0.00 0.00 0.00 0.00 0.00 0.00 0.00 0.00 0.00 0.00 0.00 0.00 0.00 0.00 0.00 0.00 0.00 0.00 0.00 0.00 0.00 0.00 0.00 0.00 0.00 0.00 0.00 0.00 0.00 0.00 0.00
0.01 0.01 0.00 0.00 0.00 0.00 0.00 0.00 0.01 0.01 0.01 0.01 0.00 0.00 0.01 0.00 0.00 0.00 0.00 0.00 0.00 0.00 0.00 0.00 0.00 0.00 0.00 0.00 0.00 0.00 0.00 0.00 0.00 0.00 0.00 0.00 0.01 0.01 0.00 0.00 0.00 0.00 0.00 0.00
0.01 0.00 0.00 0.00 0.00 0.00 0.00 0.00 0.01 0.01 0.01 0.01 0.00 0.00 0.01 0.01 0.01 0.00 0.00 0.00 0.00 0.00 0.00 0.00 0.00 0.00 0.00 0.00 0.00 0.00 0.00 0.00 0.00 0.00 0.01 0.01 0.01 0.01 0.00 0.00 0.00 0.00 0.00 0.00
0.00 0.00 0.00 0.00 0.00 0.00 0.00 0.01 0.01 0.01 0.01 0.01 0.00 0.00 0.01 0.01 0.01 0.01 0.01 0.01 0.01 0.01 0.00 0.00 0.00 0.00 0.01 0.00 0.01 0.00 0.00 0.01 0.01 0.01 0.02 0.02 0.02 0.01 0.00 0.00 0.00 0.00 0.00 0.00
0.01 0.01 0.00 0.00 0.00 0.00 0.01 0.01 0.01 0.01 0.01 0.01 0.00 0.00 0.01 0.01 0.01 0.01 0.01 0.02 0.01 0.01 0.01 0.01 0.01 0.01 0.01 0.01 0.01 0.01 0.01 0.01 0.01 0.01 0.01 0.01 0.01 0.00 0.00 0.00 0.00 0.00 0.00 0.00
0.01 0.01 0.01 0.01 0.01 0.01 0.01 0.01 0.01 0.01 0.01 0.01 0.00 0.01 0.01 0.02 0.01 0.02 0.03 0.03 0.02 0.03 0.03 0.02 0.02 0.02 0.02 0.02 0.02 0.02 0.01 0.01 0.01 0.00 0.00 0.00 0.00 0.00 0.00 0.00 0.00 0.00 0.00 0.00
0.01 0.01 0.01 0.01 0.01 0.01 0.01 0.01 0.01 0.01 0.01 0.01 0.01 0.01 0.01 0.01 0.02 0.03 0.03 0.03 0.03 0.03 0.03 0.03 0.02 0.02 0.02 0.02 0.02 0.01 0.01 0.01 0.01 0.00 0.00 0.00 0.00 0.00 0.00 0.00 0.01 0.01 0.01 0.01
0.01 0.01 0.01 0.01 0.01 0.01 0.01 0.01 0.02 0.02 0.01 0.01 0.01 0.02 0.03 0.02 0.02 0.04 0.04 0.04 0.03 0.03 0.03 0.04 0.03 0.02 0.02 0.02 0.01 0.01 0.01 0.01 0.01 0.01 0.01 0.01 0.01 0.02 0.02 0.02 0.02 0.02 0.02 0.01
0.02 0.01 0.01 0.01 0.01 0.00 0.01 0.01 0.02 0.02 0.02 0.01 0.01 0.02 0.04 0.04 0.05 0.05 0.04 0.04 0.03 0.03 0.03 0.03 0.03 0.03 0.02 0.01 0.01 0.02 0.02 0.02 0.02 0.02 0.02 0.02 0.02 0.03 0.03 0.02 0.02 0.01 0.00 0.00
0.01 0.01 0.02 0.01 0.01 0.01 0.01 0.01 0.02 0.02 0.02 0.02 0.02 0.02 0.03 0.04 0.05 0.04 0.04 0.04 0.04 0.04 0.03 0.03 0.03 0.02 0.02 0.02 0.02 0.02 0.03 0.03 0.03 0.03 0.03 0.02 0.02 0.02 0.02 0.02 0.01 0.01 0.01 0.01
0.00 0.01 0.01 0.02 0.02 0.01 0.01 0.01 0.01 0.02 0.02 0.02 0.02 0.02 0.02 0.03 0.03 0.03 0.03 0.04 0.03 0.03 0.03 0.03 0.03 0.03 0.03 0.03 0.02 0.03 0.03 0.03 0.03 0.03 0.03 0.02 0.02 0.03 0.04 0.03 0.03 0.02 0.02 0.02
0.01 0.01 0.01 0.01 0.02 0.02 0.02 0.02 0.02 0.02 0.02 0.02 0.02 0.02 0.02 0.02 0.02 0.02 0.02 0.02 0.03 0.04 0.04 0.03 0.03 0.03 0.03 0.03 0.03 0.02 0.02 0.03 0.03 0.03 0.03 0.04 0.05 0.06 0.06 0.06 0.05 0.05 0.04 0.04
0.01 0.02 0.03 0.03 0.03 0.03 0.03 0.03 0.03 0.03 0.02 0.02 0.03 0.03 0.03 0.02 0.03 0.02 0.01 0.01 0.02 0.03 0.04 0.04 0.03 0.04 0.06 0.06 0.05 0.04 0.04 0.04 0.05 0.06 0.06 0.08 0.09 0.09 0.08 0.07 0.05 0.04 0.03 0.02
MSLP
1012.48 1012.93 1013.20 1013.33 1013.40 1013.49 1013.64 1013.88 1014.20 1014.54 1014.84 1015.04 1015.08 1014.97 1014.72 1014.39 1014.06 1013.79 1013.62 1013.59 1013.67 1013.84 1014.05 1014.25 1014.40 1014.50 1014.55 1014.60 1014.68 1014.83 1015.05 1015.36 1015.72 1016.10 1016.47 1016.78 1017.01 1017.16 1017.26 1017.33 1017.42 1017.53 1017.71 1017.94
1012.77 1013.13 1013.31 1013.38 1013.43 1013.54 1013.77 1014.13 1014.57 1015.03 1015.41 1015.63 1015.65 1015.45 1015.08 1014.62 1014.16 1013.80 1013.59 1013.56 1013.69 1013.95 1014.24 1014.51 1014.72 1014.83 1014.86 1014.85 1014.86 1014.94 1015.12 1015.40 1015.78 1016.20 1016.62 1016.98 1017.26 1017.44 1017.54 1017.58 1017.62 1017.69 1017.82 1018.01
1012.78 1013.06 1013.18 1013.22 1013.30 1013.49 1013.83 1014.34 1014.93 1015.51 1015.97 1016.21 1016.19 1015.89 1015.39 1014.78 1014.18 1013.70 1013.43 1013.39 1013.56 1013.88 1014.26 1014.62 1014.88 1015.02 1015.06 1015.03 1015.00 1015.03 1015.18 1015.47 1015.86 1016.33 1016.81 1017.23 1017.56 1017.78 1017.89 1017.92 1017.93 1017.94 1018.02 1018.16
1012.54 1012.75 1012.83 1012.89 1013.03 1013.34 1013.85 1014.53 1015.29 1016.00 1016.54 1016.80 1016.72 1016.31 1015.66 1014.88 1014.12 1013.52 1013.16 1013.09 1013.27 1013.65 1014.11 1014.54 1014.88 1015.07 1015.13 1015.11 1015.07 1015.10 1015.24 1015.53 1015.96 1016.47 1017.01 1017.50 1017.88 1018.14 1018.27 1018.30 1018.27 1018.25 1018.27 1018.36
1012.16 1012.31 1012.38 1012.48 1012.73 1013.19 1013.88 1014.74 1015.67 1016.51 1017.12 1017.38 1017.24 1016.72 1015.91 1014.95 1014.03 1013.28 1012.83 1012.70 1012.88 1013.29 1013.81 1014.33 1014.74 1015.00 1015.11 1015.12 1015.10 1015.13 1015.28 1015.59 1016.04 1016.59 1017.17 1017.72 1018.16 1018.46 1018.61 1018.64 1018.61 1018.56 1018.54 1018.58
1011.77 1011.87 1011.94 1012.11 1012.47 1013.09 1013.96 1015.00 1016.08 1017.03 1017.68 1017.93 1017.72 1017.08 1016.12 1015.01 1013.92 1013.04 1012.47 1012.28 1012.44 1012.86 1013.43 1014.01 1014.49 1014.83 1015.00 1015.06 1015.08 1015.13 1015.30 1015.62 1016.09 1016.66 1017.27 1017.85 1018.33 1018.67 1018.85 1018.90 1018.87 1018.81 1018.77 1018.78
1011.47 1011.53 1011.62 1011.86 1012.34 1013.10 1014.12 1015.30 1016.49 1017.51 1018.18 1018.40 1018.12 1017.37 1016.28 1015.02 1013.80 1012.79 1012.13 1011.87 1011.99 1012.41 1013.00 1013.63 1014.19 1014.59 1014.84 1014.96 1015.02 1015.10 1015.29 1015.62 1016.09 1016.66 1017.28 1017.87 1018.37 1018.73 1018.94 1019.02 1019.00 1018.95 1018.91 1018.91
1011.32 1011.35 1011.46 1011.76 1012.34 1013.21 1014.33 1015.60 1016.84 1017.88 1018.54 1018.71 1018.35 1017.52 1016.33 1014.96 1013.64 1012.55 1011.81 1011.49 1011.57 1011.97 1012.58 1013.24 1013.84 1014.31 1014.63 1014.81 1014.92 1015.05 1015.25 1015.58 1016.03 1016.59 1017.19 1017.77 1018.27 1018.65 1018.87 1018.98 1018.99 1018.97 1018.94 1018.95
1011.28 1011.30 1011.44 1011.80 1012.44 1013.37 1014.54 1015.82 1017.05 1018.05 1018.66 1018.76 1018.34 1017.44 1016.20 1014.79 1013.42 1012.28 1011.50 1011.14 1011.18 1011.56 1012.16 1012.84 1013.47 1013.99 1014.37 1014.61 1014.78 1014.94 1015.17 1015.49 1015.93 1016.45 1017.02 1017.57 1018.06 1018.43 1018.67 1018.80 1018.85 1018.85 1018.86 1018.89
1011.26 1011.30 1011.48 1011.89 1012.56 1013.50 1014.65 1015.88 1017.04 1017.95 1018.46 1018.50 1018.02 1017.09 1015.84 1014.44 1013.09 1011.96 1011.18 1010.80 1010.83 1011.18 1011.75 1012.42 1013.06 1013.61 1014.04 1014.34 1014.57 1014.78 1015.03 1015.36 1015.78 1016.27 1016.79 1017.31 1017.76 1018.11 1018.36 1018.51 1018.59 1018.64 1018.68 1018.74
1011.19 1011.28 1011.51 1011.95 1012.63 1013.53 1014.60 1015.72 1016.74 1017.52 1017.92 1017.87 1017.36 1016.45 1015.25 1013.92 1012.64 1011.58 1010.83 1010.46 1010.47 1010.78 1011.32 1011.95 1012.59 1013.15 1013.61 1013.97 1014.26 1014.52 1014.82 1015.16 1015.58 1016.05 1016.53 1017.01 1017.42 1017.76 1018.00 1018.17 1018.28 1018.36 1018.44 1018.54
1011.00 1011.17 1011.46 1011.93 1012.59 1013.43 1014.37 1015.33 1016.18 1016.79 1017.07 1016.95 1016.42 1015.55 1014.45 1013.24 1012.08 1011.12 1010.45 1010.11 1010.10 1010.37 1010.84 1011.42 1012.02 1012.58 1013.07 1013.47 1013.83 1014.16 1014.51 1014.90 1015.33 1015.79 1016.26 1016.70 1017.08 1017.40 1017.64 1017.81 1017.94 1018.06 1018.17 1018.30
1010.72 1010.98 1011.35 1011.84 1012.47 1013.20 1014.00 1014.77 1015.42 1015.86 1016.00 1015.81 1015.29 1014.49 1013.51 1012.46 1011.46 1010.63 1010.04 1009.73 1009.71 1009.93 1010.32 1010.83 1011.37 1011.90 1012.40 1012.85 1013.27 1013.68 1014.11 1014.56 1015.02 1015.50 1015.96 1016.38 1016.75 1017.05 1017.28 1017.46 1017.61 1017.75 1017.89 1018.05
1010.43 1010.79 1011.23 1011.73 1012.31 1012.93 1013.56 1014.13 1014.58 1014.83 1014.84 1014.59 1014.09 1013.39 1012.55 1011.66 1010.83 1010.14 1009.64 1009.37 1009.32 1009.47 1009.78 1010.19 1010.65 1011.14 1011.62 1012.11 1012.60 1013.09 1013.60 1014.12 1014.64 1015.15 1015.62 1016.05 1016.41 1016.70 1016.93 1017.12 1017.29 1017.45 1017.62 1017.79
1010.26 1010.71 1011.19 1011.70 1012.21 1012.70 1013.15 1013.52 1013.76 1013.84 1013.74 1013.44 1012.97 1012.36 1011.66 1010.95 1010.28 1009.72 1009.31 1009.06 1008.97 1009.04 1009.24 1009.53 1009.90 1010.33 1010.79 1011.30 1011.83 1012.40 1012.99 1013.59 1014.18 1014.73 1015.23 1015.67 1016.03 1016.33 1016.57 1016.77 1016.96 1017.14 1017.33 1017.51
1010.32 1010.83 1011.33 1011.80 1012.22 1012.58 1012.85 1013.03 1013.08 1013.00 1012.79 1012.46 1012.02 1011.50 1010.94 1010.39 1009.87 1009.42 1009.07 1008.83 1008.70 1008.68 1008.76 1008.93 1009.20 1009.54 1009.97 1010.47 1011.04 1011.66 1012.32 1012.99 1013.63 1014.24 1014.77 1015.23 1015.61 1015.92 1016.17 1016.39 1016.60 1016.81 1017.01 1017.21
1010.66 1011.18 1011.66 1012.06 1012.37 1012.58 1012.68 1012.67 1012.56 1012.35 1012.06 1011.71 1011.30 1010.88 1010.44 1010.02 1009.63 1009.28 1008.97 1008.73 1008.55 1008.43 1008.40 1008.45 1008.60 1008.86 1009.23 1009.70 1010.28 1010.94 1011.64 1012.35 1013.04 1013.68 1014.25 1014.73 1015.13 1015.45 1015.73 1015.97 1016.20 1016.43 1016.65 1016.86
1011.24 1011.71 1012.11 1012.40 1012.58 1012.64 1012.58 1012.42 1012.18 1011.88 1011.54 1011.18 1010.82 1010.48 1010.15 1009.85 1009.56 1009.29 1009.02 1008.77 1008.54 1008.34 1008.20 1008.14 1008.18 1008.35 1008.65 1009.08 1009.64 1010.29 1011.00 1011.73 1012.44 1013.10 1013.68 1014.18 1014.60 1014.94 1015.24 1015.51 1015.76 1016.00 1016.24 1016.45
1011.89 1012.27 1012.54 1012.70 1012.74 1012.66 1012.46 1012.19 1011.85 1011.50 1011.14 1010.81 1010.52 1010.26 1010.04 1009.84 1009.65 1009.44 1009.21 1008.96 1008.69 1008.42 1008.20 1008.04 1007.99 1008.07 1008.29 1008.67 1009.18 1009.80 1010.49 1011.20 1011.90 1012.55 1013.13 1013.63 1014.06 1014.42 1014.74 1015.03 1015.30 1015.55 1015.79 1016.00
1012.42 1012.66 1012.79 1012.80 1012.70 1012.49 1012.19 1011.85 1011.48 1011.12 1010.79 1010.52 1010.32 1010.16 1010.05 1009.95 1009.84 1009.70 1009.51 1009.26 1008.98 1008.68 1008.39 1008.17 1008.04 1008.05 1008.20 1008.50 1008.95 1009.50 1010.14 1010.81 1011.47 1012.09 1012.65 1013.14 1013.56 1013.93 1014.26 1014.55 1014.83 1015.09 1015.31 1015.50
1012.65 1012.73 1012.70 1012.56 1012.34 1012.04 1011.69 1011.33 1010.98 1010.67 1010.43 1010.26 1010.16 1010.12 1010.12 1010.13 1010.10 1010.03 1009.89 1009.67 1009.40 1009.09 1008.78 1008.52 1008.34 1008.28 1008.37 1008.60 1008.96 1009.44 1010.00 1010.59 1011.19 1011.76 1012.28 1012.74 1013.15 1013.51 1013.83 1014.12 1014.39 1014.63 1014.83 1014.98
1012.47 1012.38 1012.20 1011.95 1011.63 1011.29 1010.94 1010.62 1010.35 1010.14 1010.02 1009.99 1010.02 1010.11 1010.23 1010.34 1010.40 1010.40 1010.32 1010.15 1009.91 1009.62 1009.32 1009.05 1008.85 1008.76 1008.78 1008.94 1009.22 1009.61 1010.07 1010.58 1011.09 1011.59 1012.06 1012.48 1012.86 1013.19 1013.49 1013.76 1014.00 1014.20 1014.35 1014.45
1011.88 1011.65 1011.35 1011.01 1010.66 1010.32 1010.02 1009.79 1009.64 1009.59 1009.62 1009.74 1009.92 1010.14 1010.37 1010.58 1010.74 1010.81 1010.80 1010.69 1010.50 1010.26 1009.99 1009.74 1009.54 1009.42 1009.40 1009.50 1009.70 1009.99 1010.35 1010.76 1011.18 1011.60 1011.99 1012.36 1012.69 1012.99 1013.25 1013.48 1013.67 1013.80 1013.89 1013.91
1011.01 1010.68 1010.30 1009.92 1009.57 1009.28 1009.08 1008.98 1008.99 1009.09 1009.30 1009.57 1009.89 1010.24 1010.58 1010.88 1011.11 1011.25 1011.30 1011.26 1011.13 1010.95 1010.73 1010.52 1010.33 1010.21 1010.16 1010.20 1010.33 1010.53 1010.80 1011.10 1011.43 1011.76 1012.08 1012.38 1012.66 1012.90 1013.10 1013.27 1013.38 1013.44 1013.44 1013.37
1010.07 1009.67 1009.26 1008.88 1008.59 1008.39 1008.31 1008.36 1008.52 1008.80 1009.15 1009.56 1010.01 1010.45 1010.87 1011.23 1011.52 1011.72 1011.82 1011.84 1011.77 1011.65 1011.50 1011.33 1011.18 1011.06 1011.00 1011.00 1011.06 1011.18 1011.35 1011.56 1011.79 1012.04 1012.28 1012.51 1012.72 1012.89 1013.03 1013.12 1013.15 1013.11 1013.01 1012.84
1009.29 1008.87 1008.47 1008.14 1007.92 1007.83 1007.89 1008.07 1008.38 1008.79 1009.27 1009.78 1010.30 1010.80 1011.25 1011.64 1011.95 1012.18 1012.32 1012.39 1012.38 1012.32 1012.23 1012.11 1012.00 1011.90 1011.83 1011.79 1011.80 1011.85 1011.94 1012.07 1012.22 1012.38 1012.55 1012.71 1012.85 1012.95 1013.01 1013.02 1012.95 1012.82 1012.61 1012.33
Thickness
5776 5761 5752 5758 5761 5762 5757 5747 5740 5745 5752 5742 5732 5729 5730 5732 5729 5725 5721 5719 5718 5720 5724 5727 5729 5730 5730 5731 5732 5732 5732 5732 5732 5730 5728 5727 5724 5724 5723 5722 5721 5719 5718 5715
5759 5753 5770 5776 5772 5763 5755 5745 5741 5744 5749 5741 5729 5728 5732 5732 5729 5727 5723 5720 5720 5720 5722 5724 5725 5728 5729 5729 5730 5729 5730 5730 5730 5729 5728 5726 5724 5722 5721 5719 5718 5717 5715 5713
5754 5768 5783 5777 5770 5760 5755 5748 5744 5739 5740 5736 5729 5723 5727 5731 5731 5729 5727 5725 5724 5723 5722 5723 5724 5725 5728 5727 5727 5728 5728 5728 5728 5727 5726 5723 5720 5719 5717 5715 5714 5714 5713 5712
5759 5774 5778 5772 5768 5764 5749 5760 5753 5742 5727 5716 5721 5703 5722 5726 5726 5727 5726 5725 5725 5727 5726 5725 5724 5724 5726 5727 5727 5726 5727 5726 5725 5725 5724 5721 5717 5714 5713 5712 5712 5711 5710 5709
5761 5774 5773 5767 5771 5770 5757 5757 5748 5737 5724 5713 5713 5703 5712 5724 5721 5725 5728 5729 5730 5730 5729 5727 5727 5726 5728 5728 5727 5727 5725 5724 5724 5724 5723 5720 5716 5714 5712 5711 5709 5708 5707 5706
5770 5781 5779 5775 5774 5771 5759 5746 5734 5720 5711 5702 5711 5702 5708 5718 5727 5732 5734 5735 5734 5734 5733 5731 5730 5729 5728 5728 5727 5726 5724 5722 5722 5721 5720 5718 5716 5713 5710 5708 5706 5705 5704 5703
5759 5770 5778 5778 5761 5758 5751 5728 5705 5703 5691 5696 5711 5705 5712 5737 5743 5743 5741 5740 5739 5737 5735 5732 5730 5729 5728 5728 5727 5725 5723 5721 5720 5720 5718 5717 5715 5713 5710 5707 5705 5703 5701 5700
5742 5743 5767 5772 5764 5749 5744 5733 5706 5696 5690 5696 5708 5705 5727 5749 5753 5752 5750 5746 5742 5738 5736 5735 5733 5732 5732 5731 5728 5726 5723 5721 5720 5718 5717 5715 5714 5711 5709 5707 5704 5702 5699 5698
5739 5743 5770 5774 5774 5760 5739 5730 5728 5705 5699 5693 5701 5715 5736 5752 5751 5749 5748 5745 5742 5740 5739 5738 5737 5735 5735 5733 5730 5728 5724 5722 5720 5718 5716 5714 5712 5710 5708 5706 5703 5701 5698 5696
5754 5743 5759 5768 5768 5759 5750 5732 5713 5702 5691 5689 5703 5710 5720 5741 5743 5746 5746 5745 5745 5744 5743 5741 5740 5739 5737 5736 5733 5729 5726 5723 5720 5717 5715 5714 5711 5709 5707 5704 5702 5699 5696 5694
5758 5742 5747 5753 5750 5744 5736 5728 5714 5700 5699 5689 5690 5708 5744 5747 5749 5749 5750 5752 5750 5748 5747 5745 5743 5742 5739 5736 5732 5728 5725 5722 5719 5716 5714 5712 5710 5707 5705 5702 5700 5697 5694 5691
5752 5737 5729 5741 5756 5759 5747 5734 5718 5707 5702 5693 5691 5711 5759 5757 5757 5756 5755 5756 5755 5753 5751 5749 5746 5742 5738 5735 5732 5729 5726 5723 5720 5718 5714 5711 5708 5705 5702 5700 5697 5694 5691 5688
5748 5732 5718 5722 5730 5743 5741 5735 5725 5713 5700 5689 5691 5718 5757 5757 5756 5756 5757 5756 5756 5753 5751 5748 5745 5742 5739 5737 5734 5730 5727 5724 5721 5717 5713 5709 5705 5702 5699 5697 5694 5691 5687 5684
5753 5730 5722 5716 5722 5734 5734 5733 5724 5714 5699 5695 5703 5722 5744 5749 5751 5754 5756 5756 5755 5754 5751 5748 5745 5743 5741 5738 5735 5731 5728 5725 5720 5715 5711 5707 5704 5701 5698 5695 5691 5687 5684 5681
5746 5728 5729 5732 5737 5737 5736 5735 5728 5720 5718 5711 5721 5725 5742 5749 5753 5757 5757 5755 5753 5751 5750 5749 5747 5744 5740 5737 5734 5731 5728 5724 5719 5713 5709 5706 5703 5699 5695 5691 5688 5685 5681 5678
5733 5727 5727 5729 5737 5735 5732 5735 5734 5730 5729 5725 5728 5732 5751 5753 5754 5754 5754 5753 5752 5752 5753 5751 5749 5744 5741 5738 5735 5731 5726 5722 5716 5711 5708 5704 5700 5695 5691 5687 5684 5681 5677 5674
5721 5719 5713 5711 5724 5725 5717 5732 5733 5732 5734 5732 5727 5739 5748 5747 5748 5750 5752 5752 5753 5754 5753 5751 5749 5747 5743 5740 5735 5730 5726 5720 5713 5709 5705 5701 5696 5692 5688 5684 5680 5677 5673 5669
5715 5709 5701 5701 5710 5698 5723 5741 5740 5733 5734 5735 5735 5739 5742 5745 5749 5750 5750 5750 5751 5752 5751 5749 5747 5745 5743 5738 5733 5728 5722 5715 5710 5706 5702 5698 5693 5689 5685 5680 5676 5673 5669 5665
5715 5705 5694 5690 5693 5702 5722 5734 5732 5726 5727 5734 5732 5736 5740 5744 5745 5743 5745 5747 5748 5748 5747 5747 5745 5742 5737 5733 5728 5721 5715 5710 5706 5702 5698 5695 5690 5686 5681 5676 5673 5670 5665 5661
5705 5703 5693 5687 5690 5689 5716 5733 5736 5727 5718 5733 5730 5730 5732 5735 5725 5729 5739 5741 5742 5741 5740 5738 5737 5733 5728 5725 5720 5714 5708 5704 5701 5699 5695 5691 5687 5682 5677 5673 5669 5665 5661 5658
5693 5690 5688 5685 5686 5697 5721 5728 5727 5706 5712 5727 5726 5725 5725 5722 5722 5726 5730 5733 5734 5733 5731 5729 5727 5724 5721 5716 5712 5706 5702 5700 5699 5696 5691 5686 5681 5677 5672 5668 5664 5659 5655 5652
5689 5684 5681 5678 5679 5691 5719 5719 5712 5712 5719 5720 5720 5720 5718 5717 5718 5720 5721 5722 5725 5723 5721 5718 5716 5713 5711 5708 5704 5698 5695 5695 5691 5686 5682 5678 5674 5670 5667 5661 5657 5653 5649 5645
5688 5690 5687 5687 5691 5706 5711 5713 5715 5714 5712 5714 5713 5713 5713 5711 5710 5709 5710 5711 5713 5712 5709 5706 5704 5700 5697 5696 5694 5689 5686 5684 5681 5677 5672 5669 5666 5662 5658 5653 5649 5645 5641 5638
5689 5690 5687 5687 5696 5703 5706 5708 5710 5710 5708 5708 5707 5706 5705 5702 5701 5699 5699 5698 5698 5697 5695 5693 5692 5689 5686 5684 5682 5680 5678 5675 5671 5667 5663 5659 5656 5653 5649 5645 5641 5637 5634 5630
5688 5684 5682 5684 5693 5698 5702 5702 5704 5703 5703 5701 5699 5698 5696 5694 5691 5689 5686 5685 5685 5684 5683 5681 5679 5677 5675 5673 5671 5670 5667 5665 5661 5656 5652 5648 5645 5641 5638 5635 5632 5629 5627 5623
5679 5679 5678 5682 5691 5690 5690 5694 5697 5694 5692 5691 5689 5686 5686 5685 5681 5679 5676 5674 5673 5672 5670 5669 5667 5665 5663 5661 5659 5657 5655 5653 5649 5644 5640 5636 5633 5629 5626 5624 5622 5621 5617 5615